Zurück zum Katalog

STARLINK-36952

AktivKommunikationVLEO
NORAD 68062·PAYLOAD·🇺🇸 United States

Gestartet Mar 2, 2026 von Vandenberg Space Force Base

Loading…

Nächste Überflüge (nächste 24 Stunden)

TLE

AktuellSource: CelesTrak SupGP

Epoche: Sep 15, 2026, 03:02 UTC

1 68062C 26041Y   26258.12687500 -.00044459  00000+0 -13134-2 0  2586
2 68062  53.1574 244.9800 0001374  94.3173 214.4877 15.34417468    15

Verfolge STARLINK-36952 in Echtzeit mit AllMySat

Download on the App Store